Regional Weather Roundup
Issued by NWS

Home | Current Version | Previous Version | Text Only | Print | Product List | Glossary On
Versions: 1 2 3 4 5 6 7 8 9 10 11 12 13 14 15 16 17 18 19 20 21 22 23 24 25 26 27 28 29 30 31 32 33 34 35 36 37 38 39 40 41 42 43 44 45 46 47 48 49 50
000
ASCA44 KEWX 180820
RWRMX

LATIN AMERICA AND CARIBBEAN REGIONAL WEATHER ROUNDUP
NATIONAL WEATHER SERVICE AUSTIN/SAN ANTONIO TX
200 AM CST THU JAN 18 2018

NOTE: "FAIR" INDICATED FEW OR NO CLOUDS BELOW 12,000 FEET WITH NO
SIGNIFICANT WEATHER AND/OR OBSTRUCTIONS TO VISIBILITY.

BAJA CALIFORNIA

CITY           SKY/WX    TMP DP  RH WIND       PRES   REMARKS
MEXICALI       CLEAR     54  34  47 NW5       30.13F
S.J. DEL CABO    N/A    N/A N/A N/A MISG        N/A
TIJUANA        PTCLDY    57  48  72 CALM      30.12S

NORTHWESTERN MEXICO

CITY           SKY/WX    TMP DP  RH WIND       PRES   REMARKS
HERMOSILLO     CLEAR     59  41  51 CALM      30.06F

NORTHEASTERN MEXICO

CITY           SKY/WX    TMP DP  RH WIND       PRES   REMARKS
MONCLOVA         N/A    N/A N/A N/A MISG        N/A
MONTERREY      CLOUDY    34  27  75 E6        30.50F WCI  29
REYNOSA          N/A    N/A N/A N/A MISG        N/A
CD. VICTORIA     N/A    N/A N/A N/A MISG        N/A

WESTERN MEXICO

CITY           SKY/WX    TMP DP  RH WIND       PRES   REMARKS
AGUASCALIENTES   N/A    N/A N/A N/A MISG        N/A
COLIMA           N/A    N/A N/A N/A MISG        N/A
GUADALAJARA    PTCLDY    48  39  71 CALM      30.26S
MAZATLAN       FOG       55  55 100 NE5       30.02F VSB 1
P. VALLARTA    CLEAR     63  63 100 N3        30.01F
URUAPAN          N/A    N/A N/A N/A MISG        N/A
ZACATECAS        N/A    N/A N/A N/A MISG        N/A

CENTRAL MEXICO

CITY           SKY/WX    TMP DP  RH WIND       PRES   REMARKS
CUERNAVACA       N/A    N/A N/A N/A MISG        N/A
MEXICO CITY    CLEAR     45  34  65 NE5       30.42F WCI  42
MORELIA          N/A    N/A N/A N/A MISG        N/A
POZA RICA        N/A    N/A N/A N/A MISG        N/A
S. LUIS POTOSI   N/A    N/A N/A N/A MISG        N/A
TOLUCA         MOCLDY    37  30  75 CALM      30.43

SOUTHERN MEXICO

CITY           SKY/WX    TMP DP  RH WIND       PRES   REMARKS
ACAPULCO       PTCLDY    73  70  88 N7        29.99S
B. DE HUATULCO   N/A    N/A N/A N/A MISG        N/A
P. ESCONDIDO     N/A    N/A N/A N/A MISG        N/A
VERACRUZ         N/A    N/A N/A N/A MISG        N/A

YUCATAN PENINSULA

CITY           SKY/WX    TMP DP  RH WIND       PRES   REMARKS
CAMPECHE         N/A    N/A N/A N/A MISG        N/A
CANCUN         LGT RAIN  66  64  94 E8        30.21F
CHETUMAL         N/A    N/A N/A N/A MISG        N/A
CD. DEL CARMEN   N/A    N/A N/A N/A MISG        N/A
COZUMEL        CLOUDY    72  66  83 NE10      30.17
MERIDA         MOCLDY    68  63  83 N5        30.26F
MINATITLAN       N/A    N/A N/A N/A MISG        N/A
TAPACHULA      CLEAR     68  68 100 NE2       29.95F

CENTRAL AMERICA

CITY           SKY/WX    TMP DP  RH WIND       PRES   REMARKS

CARIBBEAN

CITY           SKY/WX    TMP DP  RH WIND       PRES   REMARKS
ARUBA          LGT RAIN  79  75  89 E12       29.89S
CURACAO        LGT RAIN  77  73  88 SE8G21    29.92S
KINGSTON       PTCLDY    77  72  83 NE6       29.94S
NASSAU         CLOUDY    73  54  49 NW9       30.12F
SAN JUAN       PTCLDY    75  73  94 CALM      29.98F
SANTO DOMINGO  PTCLDY    72  70  94 NE3       29.97S
ST. CROIX      CLEAR     72  72 100 NE5       29.98F
ST. THOMAS     CLEAR     73  73 100 CALM      29.98S

$$




USA.gov is the U.S. government's official web portal to all federal, state and local government web resources and services.